This is the latest recevied weather packets stored in our database for station/object K9ABJ. If no packets are shown the sender has not sent any weather packets the latest 10 day(s).
| Time | Temp. | Humidity | Pressure | Rain* | Wind** | Luminosity | Snow |
|---|---|---|---|---|---|---|---|
| 1787763888 | 25° C | 72% | 1014.5 hPa | 0 mm | - | 424 W/m² | - |
| 1787763582 | 25.56° C | 71% | 1014.7 hPa | 0 mm | - | 604 W/m² | - |
| 1787763278 | 25.56° C | 71% | 1014.7 hPa | 0 mm | - | 781 W/m² | - |
| 1787762977 | 25° C | 73% | 1014.8 hPa | 0 mm | - | 1168 W/m² | - |
| 1787762677 | 23.89° C | 73% | 1014.9 hPa | 0 mm | - | 1097 W/m² | - |
| 1787762376 | 23.89° C | 74% | 1015 hPa | 0 mm | - | 522 W/m² | - |
| 1787762074 | 24.44° C | 74% | 1015.1 hPa | 0 mm | - | 329 W/m² | - |
| 1787761769 | 23.89° C | 75% | 1015.1 hPa | 0 mm | - | 341 W/m² | - |
| 1787761464 | 23.89° C | 76% | 1015 hPa | 0 mm | - | 175 W/m² | - |
| 1787761159 | 23.89° C | 75% | 1015.4 hPa | 0 mm | - | 302 W/m² | - |
| 1787760859 | 23.89° C | 75% | 1015.5 hPa | 0 mm | - | 505 W/m² | - |
| 1787760556 | 23.89° C | 75% | 1015.4 hPa | 0 mm | - | 296 W/m² | - |
| 1787760251 | 23.33° C | 77% | 1015.4 hPa | 0 mm | - | 327 W/m² | - |
| 1787759949 | 23.33° C | 78% | 1015.6 hPa | 0 mm | - | 210 W/m² | - |
| 1787759643 | 22.78° C | 78% | 1015.5 hPa | 0 mm | - | 218 W/m² | - |
| 1787759340 | 22.78° C | 79% | 1015.7 hPa | 0 mm | - | 224 W/m² | - |
| 1787759034 | 22.78° C | 78% | 1015.5 hPa | 0 mm | - | 143 W/m² | - |
| 1787758733 | 22.78° C | 77% | 1015.7 hPa | 0 mm | - | 77 W/m² | - |
| 1787758429 | 22.78° C | 76% | 1015.5 hPa | 0 mm | - | 159 W/m² | - |
| 1787758127 | 22.78° C | 77% | 1015.6 hPa | 0 mm | - | 225 W/m² | - |
| 1787757824 | 22.78° C | 77% | 1015.5 hPa | 0 mm | - | 234 W/m² | - |
| 1787757519 | 22.78° C | 78% | 1015.6 hPa | 0 mm | - | 242 W/m² | - |
| 1787757214 | 22.22° C | 78% | 1015.3 hPa | 0 mm | - | 197 W/m² | - |
| 1787756912 | 22.78° C | 77% | 1015.7 hPa | 0 mm | - | 224 W/m² | - |
| 1787756609 | 22.22° C | 78% | 1015.6 hPa | 0 mm | - | 159 W/m² | - |
* Rain latest hour (hover to see other rain measurements)
** Current wind speed in m/s (hover to see current wind gust speed)